Home   Weather   Lubango   Past weeks

Flag for Angola Past Weather in Lubango, Angola — Yesterday and Last 2 Weeks

Now
73 °F

Passing clouds.


Feels Like: 73 °F
Forecast: 52 / 88 °F
Wind: 7 mph from South

Location: Luanda Airport

Current Time: Sep 30, 2016 at 2:32:42 AM

Latest Report: Sep 30, 2016 at 12:00 AM


Visibility: N/A

Pressure: 29.92 "Hg (24.41 "Hg at 1765m altitude)

Humidity: 83%

Dew Point: 68 °F

Location of LubangoLocation

Past Weather in Lubango — Graph

°F

Lubango Temperature Yesterday

Maximum temperature yesterday: 81 °F (at 12:00 PM)
Minimum temperature yesterday: 70 °F (at 6:00 AM)
Average temperature yesterday: 75 °F

High & Low Weather Summary for the Past Weeks

 TemperatureHumidityPressure
High82 °F (Sep 16, 2:00 PM)94% (Sep 17, 10:00 PM)30.04 "Hg (Sep 17, 10:00 PM)
Low68 °F (Sep 17, 10:00 PM)55% (Sep 19, 1:00 PM)29.80 "Hg (Sep 25, 3:00 PM)
Average74 °F80%29.93 "Hg
* Reported Sep 15 2:00 AM — Sep 30 12:00 AM, Lubango, Weather by CustomWeather, © 2016

Note: Actual official high and low records may vary slightly from our data, if they occured in-between our weather recording intervals... More about our weather records

Advertising

Lubango Weather History for the Previous 24 Hours

Scroll right to see more
 ConditionsComfort  
Time TempWeatherWind HumidityBarometerVisibility
12:00 AM
Fri, Sep 30
73 °FPassing clouds.7 mph83%29.92 "HgN/A
11:00 PM
Thu, Sep 29
72 °FPassing clouds.9 mph88%29.92 "HgN/A
10:00 PM73 °FPassing clouds.13 mph83%29.86 "HgN/A
9:00 PM73 °FPassing clouds.13 mph83%29.86 "HgN/A
8:00 PM73 °FPassing clouds.9 mph83%29.89 "HgN/A
7:00 PM75 °FPassing clouds.9 mph78%29.86 "HgN/A
6:00 PM75 °FPassing clouds.12 mph78%29.83 "HgN/A
5:00 PM77 °FSunny.14 mph74%29.80 "Hg10 mi
4:00 PM79 °FSunny.14 mph70%29.83 "Hg10 mi
3:00 PM79 °FSunny.14 mph70%29.83 "Hg10 mi
2:00 PM81 °FSunny.14 mph70%29.83 "Hg10 mi
1:00 PM81 °FSunny.14 mph66%29.86 "Hg10 mi
12:00 PM81 °FPassing clouds.8 mph66%29.92 "HgN/A
11:00 AM79 °FPassing clouds.8 mph70%29.95 "HgN/A
10:00 AM77 °FPartly sunny.3 mph74%29.95 "HgN/A
9:00 AM77 °FPartly sunny.7 mph74%29.98 "HgN/A
8:00 AM75 °FPassing clouds.2 mph78%29.95 "Hg4 mi
7:00 AM72 °FClear.No wind83%29.95 "Hg4 mi
6:00 AM70 °FClear.No wind88%29.92 "Hg4 mi
5:00 AM72 °FPassing clouds.2 mph83%29.92 "Hg4 mi
4:00 AM72 °FPassing clouds.5 mph83%29.89 "HgN/A
3:00 AM72 °FPassing clouds.6 mph88%29.89 "HgN/A
2:00 AM72 °FPassing clouds.8 mph88%29.92 "HgN/A
Weather by CustomWeather, © 2016

See weather overviewHow to use our weather pages